Albemarle, NC

6:35 AM EDT on October 21, 2019 (GMT -0400)
Stanly County

Weather History for KVUJ - July, 2019

Change the Weather History Date:

Monday, July 22, 2019

  Actual Average (KHBI) Record (KHBI)
Temperature  
Mean Temperature 82 °F -  
Max Temperature 94 °F 88 °F 100 °F (1952)
Min Temperature 71 °F 68 °F 55 °F (2007)
Cooling Degree Days 18    
Growing Degree Days 32 (Base 50)    
Moisture  
Dew Point 69 °F    
Average Humidity 64    
Maximum Humidity 92    
Minimum Humidity 39    
Precipitation  
Precipitation 0.00 in - - ()
Sea Level Pressure  
Sea Level Pressure 30.00 in    
Wind  
Wind Speed 5 mph (SW)    
Max Wind Speed 22 mph    
Max Gust Speed 26 mph    
Visibility 10 miles    
Events Rain , Thunderstorm    
Averages and records for this station are not official NWS values.
T = Trace of Precipitation, MM = Missing Value Source: NWS Daily Summary

Daily Weather History Graph

Daily Weather History Graph

Search for Another Location

Airport or City:

Astronomy

Jul. 22, 2019 Rise Set
Actual Time 6:21 AM EDT 8:32 PM EDT
Civil Twilight 5:52 AM EDT 9:00 PM EDT
Nautical Twilight 5:17 AM EDT 9:35 PM EDT
Astronomical Twilight 4:39 AM EDT 10:13 PM EDT
Moon No Moon Rise 11:27 AM EDT (7/22)
Length of Visible Light 15h 08m
Length of Day
14h 10m
Waning Gibbous, 72% of the Moon is Illuminated
Jul 22
Waning Gibbous
Jul 24
Last Quarter
Jul 31
New
Aug 7
First Quarter
Aug 15
Full

Hourly Weather History & Observations

Time (EDT) Temp. Heat Index Dew Point Humidity Pressure Visibility Wind Dir Wind Speed Gust Speed Precip Events Conditions
12:00 AM 79.7 °F - 69.1 °F 70% 30.03 in 10.0 mi WSW 3.5 mph - N/A   Clear
12:20 AM 79.2 °F - 68.9 °F 71% 30.03 in 10.0 mi SW 3.5 mph - N/A   Clear
12:40 AM 79.0 °F - 68.9 °F 71% 30.04 in 10.0 mi Calm Calm - N/A   Clear
1:00 AM 78.8 °F - 69.3 °F 72% 30.04 in 10.0 mi Calm Calm - N/A   Clear
1:20 AM 78.1 °F - 69.3 °F 74% 30.03 in 10.0 mi Calm Calm - N/A   Clear
1:40 AM 77.4 °F - 69.1 °F 76% 30.03 in 10.0 mi Calm Calm - N/A   Clear
2:00 AM 76.6 °F - 69.1 °F 77% 30.02 in 10.0 mi Calm Calm - N/A   Clear
2:20 AM 75.7 °F - 69.4 °F 81% 30.02 in 10.0 mi Calm Calm - N/A   Clear
2:40 AM 75.7 °F - 69.3 °F 80% 30.02 in 10.0 mi Calm Calm - N/A   Clear
3:00 AM 75.2 °F - 69.3 °F 82% 30.01 in 10.0 mi Calm Calm - N/A   Clear
3:20 AM 74.5 °F - 69.3 °F 84% 30.01 in 10.0 mi Calm Calm - N/A   Clear
3:40 AM 73.6 °F - 69.3 °F 86% 30.01 in 10.0 mi Calm Calm - N/A   Clear
4:00 AM 73.8 °F - 69.1 °F 85% 30.01 in 10.0 mi Calm Calm - N/A   Clear
4:20 AM 73.8 °F - 69.1 °F 85% 30.01 in 10.0 mi Calm Calm - N/A   Clear
4:40 AM 73.6 °F - 69.1 °F 86% 30.02 in 10.0 mi Calm Calm - N/A   Clear
5:00 AM 72.9 °F - 69.1 °F 88% 30.02 in 10.0 mi Calm Calm - N/A   Clear
5:20 AM 73.2 °F - 68.9 °F 86% 30.02 in 10.0 mi Calm Calm - N/A   Clear
5:40 AM 72.3 °F - 69.1 °F 89% 30.02 in 10.0 mi Calm Calm - N/A   Clear
6:00 AM 71.6 °F - 68.7 °F 91% 30.02 in 10.0 mi SSW 4.6 mph - N/A   Clear
6:20 AM 71.4 °F - 68.9 °F 92% 30.02 in 10.0 mi SW 3.5 mph - N/A   Clear
6:40 AM 72.1 °F - 68.9 °F 89% 30.03 in 10.0 mi SW 3.5 mph - N/A   Clear
7:00 AM 73.0 °F - 69.8 °F 90% 30.03 in 10.0 mi SW 3.5 mph - N/A   Clear
7:20 AM 75.2 °F - 70.7 °F 86% 30.03 in 10.0 mi SW 3.5 mph - N/A   Clear
7:40 AM 77.0 °F - 70.5 °F 80% 30.03 in 10.0 mi SW 5.8 mph - N/A   Clear
8:00 AM 78.6 °F - 70.7 °F 77% 30.03 in 10.0 mi SW 5.8 mph - N/A   Clear
8:20 AM 80.8 °F 84.6 °F 70.9 °F 72% 30.04 in 10.0 mi SSW 5.8 mph - N/A   Clear
8:40 AM 82.2 °F 86.4 °F 70.5 °F 68% 30.04 in 10.0 mi SW 6.9 mph - N/A   Clear
9:00 AM 81.5 °F 85.5 °F 71.1 °F 70% 30.04 in 10.0 mi SW 4.6 mph - N/A   Clear
9:20 AM 83.8 °F 88.9 °F 71.6 °F 66% 30.04 in 10.0 mi SW 6.9 mph - N/A   Clear
9:40 AM 84.9 °F 90.1 °F 70.9 °F 63% 30.04 in 10.0 mi SW 6.9 mph - N/A   Clear
10:00 AM 87.8 °F 93.4 °F 71.1 °F 57% 30.04 in 10.0 mi SW 8.1 mph - N/A   Clear
10:20 AM 87.4 °F 91.9 °F 69.6 °F 55% 30.04 in 10.0 mi SW 13.8 mph 18.4 mph N/A   Clear
10:40 AM 86.9 °F 91.7 °F 69.8 °F 57% 30.04 in 10.0 mi SW 11.5 mph - N/A   Clear
11:00 AM 87.4 °F 92.3 °F 70.0 °F 56% 30.04 in 10.0 mi SW 11.5 mph 18.4 mph N/A   Clear
11:20 AM 88.0 °F 93.4 °F 70.3 °F 56% 30.04 in 10.0 mi SW 8.1 mph - N/A   Clear
11:40 AM 88.3 °F 93.2 °F 70.0 °F 54% 30.04 in 10.0 mi WSW 10.4 mph 17.3 mph N/A   Clear
12:00 PM 90.1 °F 94.9 °F 69.3 °F 50% 30.03 in 10.0 mi SW 12.7 mph 18.4 mph N/A   Scattered Clouds
12:20 PM 90.7 °F 95.4 °F 69.1 °F 49% 30.03 in 10.0 mi WSW 10.4 mph 18.4 mph N/A   Scattered Clouds
12:40 PM 91.9 °F 96.4 °F 68.7 °F 46% 30.02 in 10.0 mi SW 12.7 mph 17.3 mph N/A   Clear
1:00 PM 90.0 °F 94.1 °F 68.4 °F 49% 30.02 in 10.0 mi SW 12.7 mph 16.1 mph N/A   Scattered Clouds
1:20 PM 92.8 °F 97.6 °F 68.9 °F 45% 30.01 in 10.0 mi SW 11.5 mph 17.3 mph N/A   Scattered Clouds
1:40 PM 93.6 °F 96.9 °F 66.6 °F 41% 30.00 in 10.0 mi WSW 15.0 mph 26.5 mph N/A   Scattered Clouds
2:00 PM 93.4 °F 97.0 °F 67.5 °F 42% 30.00 in 10.0 mi WSW 11.5 mph 20.7 mph N/A   Clear
2:20 PM 92.3 °F 96.1 °F 67.3 °F 44% 29.99 in 10.0 mi WSW 10.4 mph 20.7 mph N/A   Scattered Clouds
2:40 PM 92.1 °F 96.2 °F 67.8 °F 45% 29.98 in 10.0 mi WSW 9.2 mph 20.7 mph N/A   Scattered Clouds
3:00 PM 94.5 °F 99.6 °F 68.7 °F 43% 29.98 in 10.0 mi SW 10.4 mph 20.7 mph N/A   Scattered Clouds
3:20 PM 94.5 °F 97.5 °F 65.7 °F 39% 29.97 in 10.0 mi SSW 21.9 mph 26.5 mph N/A   Scattered Clouds
3:40 PM 93.4 °F 96.6 °F 66.2 °F 41% 29.96 in 10.0 mi SW 13.8 mph 24.2 mph N/A   Clear
4:00 PM 92.5 °F 95.9 °F 66.9 °F 43% 29.95 in 10.0 mi SSW 16.1 mph 23.0 mph N/A   Scattered Clouds
4:20 PM 93.0 °F 96.4 °F 66.7 °F 42% 29.94 in 10.0 mi SSW 13.8 mph 23.0 mph N/A   Mostly Cloudy
4:40 PM 94.3 °F 98.2 °F 67.1 °F 41% 29.94 in 10.0 mi SW 16.1 mph 21.9 mph N/A   Scattered Clouds
5:00 PM 92.3 °F 95.6 °F 66.7 °F 43% 29.94 in 10.0 mi WSW 12.7 mph 19.6 mph N/A   Mostly Cloudy
5:20 PM 88.9 °F 92.6 °F 68.0 °F 50% 29.95 in 10.0 mi West 8.1 mph - N/A Rain , Thunderstorm Light Thunderstorms and Rain
5:40 PM 85.5 °F 89.1 °F 68.5 °F 57% 29.95 in 10.0 mi West 5.8 mph - N/A   Scattered Clouds
6:00 PM 87.4 °F 91.5 °F 68.9 °F 54% 29.94 in 10.0 mi WSW 5.8 mph - N/A   Clear
6:20 PM 86.9 °F 91.3 °F 69.4 °F 56% 29.94 in 10.0 mi WSW 5.8 mph - N/A   Clear
6:40 PM 86.9 °F 91.7 °F 70.2 °F 57% 29.94 in 10.0 mi Calm Calm - N/A   Clear
7:00 PM 86.4 °F 91.4 °F 70.7 °F 59% 29.95 in 10.0 mi West 4.6 mph - N/A   Scattered Clouds
7:20 PM 86.5 °F 91.0 °F 69.8 °F 57% 29.95 in 10.0 mi WSW 6.9 mph - N/A   Scattered Clouds
7:40 PM 86.7 °F 90.3 °F 68.2 °F 54% 29.96 in 10.0 mi WSW 5.8 mph - N/A Thunderstorm Clear
8:00 PM 86.2 °F 89.4 °F 67.6 °F 54% 29.96 in 10.0 mi WSW 5.8 mph - N/A   Clear
8:20 PM 84.7 °F 87.9 °F 68.2 °F 57% 29.96 in 10.0 mi SW 4.6 mph - N/A   Clear
8:40 PM 84.6 °F 87.9 °F 68.2 °F 58% 29.96 in 10.0 mi SW 4.6 mph - N/A   Scattered Clouds
9:00 PM 83.5 °F 86.9 °F 68.7 °F 61% 29.96 in 10.0 mi SW 3.5 mph - N/A   Mostly Cloudy
9:20 PM 82.9 °F 86.5 °F 69.1 °F 63% 29.96 in 10.0 mi SSW 5.8 mph - N/A   Scattered Clouds
9:40 PM 83.5 °F 86.9 °F 68.9 °F 61% 29.97 in 10.0 mi SSW 8.1 mph - N/A   Mostly Cloudy
10:00 PM 83.5 °F 86.9 °F 68.5 °F 61% 29.97 in 10.0 mi SSW 6.9 mph - N/A   Overcast
10:20 PM 83.3 °F 86.6 °F 68.7 °F 61% 29.97 in 10.0 mi SSW 5.8 mph - N/A   Overcast
10:40 PM 83.3 °F 86.6 °F 68.5 °F 61% 29.98 in 10.0 mi West 4.6 mph - N/A   Overcast
11:00 PM 81.3 °F 84.5 °F 69.1 °F 66% 29.98 in 10.0 mi SSW 8.1 mph - N/A   Scattered Clouds
11:20 PM 82.0 °F 84.9 °F 68.0 °F 62% 29.98 in 10.0 mi SW 12.7 mph 21.9 mph N/A   Clear
11:40 PM 80.8 °F 83.5 °F 67.8 °F 65% 29.97 in 10.0 mi SSW 11.5 mph - N/A   Clear